TimeEDT,TemperatureF,Dew PointF,Humidity,Sea Level PressureIn,VisibilityMPH,Wind Direction,Wind SpeedMPH,Gust SpeedMPH,PrecipitationIn,Events,Conditions,WindDirDegrees,DateUTC
12:54 AM,73.9,64.9,73,30.00,10.0,South,9.2,-,N/A,,Clear,190,2013-08-06 04:54:00
1:54 AM,73.0,64.9,76,30.00,10.0,South,8.1,-,N/A,,Overcast,190,2013-08-06 05:54:00
2:54 AM,73.0,64.0,73,29.98,10.0,South,6.9,-,0.00,,Overcast,190,2013-08-06 06:54:00
3:54 AM,72.0,64.0,76,29.98,10.0,SSW,6.9,-,N/A,,Overcast,210,2013-08-06 07:54:00
4:54 AM,72.0,64.0,76,29.97,10.0,South,3.5,-,N/A,,Overcast,170,2013-08-06 08:54:00
5:54 AM,71.1,64.0,78,29.98,10.0,Calm,Calm,-,N/A,,Overcast,0,2013-08-06 09:54:00
6:34 AM,68.0,66.9,96,30.05,2.5,North,9.2,-,0.18,Rain,Heavy Rain,360,2013-08-06 10:34:00
6:44 AM,68.0,68.0,100,30.05,3.0,East,3.5,-,0.22,Rain,Rain,100,2013-08-06 10:44:00
6:51 AM,68.0,68.0,100,30.05,1.8,East,4.6,-,0.31,Rain,Heavy Rain,90,2013-08-06 10:51:00
6:54 AM,68.0,68.0,100,30.01,1.5,ESE,4.6,-,0.35,Rain,Heavy Rain,120,2013-08-06 10:54:00
7:45 AM,68.0,68.0,100,30.06,2.5,Calm,Calm,-,0.29,Rain,Light Rain,0,2013-08-06 11:45:00
7:54 AM,68.0,66.9,96,30.03,2.0,SSE,3.5,-,0.31,Rain,Rain,150,2013-08-06 11:54:00
8:08 AM,68.0,66.9,96,30.06,4.0,ESE,3.5,-,0.00,Rain,Light Rain,120,2013-08-06 12:08:00
8:45 AM,68.0,68.0,100,30.07,5.0,SE,3.5,-,0.01,,Overcast,140,2013-08-06 12:45:00
8:54 AM,69.1,68.0,96,30.04,4.0,ESE,3.5,-,0.01,,Overcast,120,2013-08-06 12:54:00
9:06 AM,69.1,68.0,96,30.08,4.0,ESE,3.5,-,N/A,,Overcast,110,2013-08-06 13:06:00
9:19 AM,69.1,68.0,96,30.08,5.0,Calm,Calm,-,0.00,,Overcast,0,2013-08-06 13:19:00
9:42 AM,69.1,68.0,96,30.08,2.5,SE,3.5,-,0.01,Rain,Light Rain,130,2013-08-06 13:42:00
9:54 AM,69.1,68.0,96,30.05,2.5,Calm,Calm,-,0.01,Rain,Light Rain,0,2013-08-06 13:54:00
10:06 AM,69.1,69.1,100,30.08,1.0,SSE,3.5,-,0.08,Rain,Heavy Rain,150,2013-08-06 14:06:00
10:32 AM,70.0,69.1,97,30.08,2.5,SE,4.6,-,0.16,Rain,Light Rain,140,2013-08-06 14:32:00
10:43 AM,70.0,69.1,97,30.09,3.0,ESE,4.6,-,0.17,Rain,Light Rain,120,2013-08-06 14:43:00
10:54 AM,70.0,70.0,100,30.06,5.0,Variable,3.5,-,0.17,Rain,Light Rain,0,2013-08-06 14:54:00
11:51 AM,71.6,69.8,94,30.09,10.0,SSE,4.6,-,0.00,,Overcast,150,2013-08-06 15:51:00
11:54 AM,72.0,70.0,93,30.06,10.0,South,3.5,-,0.00,,Overcast,180,2013-08-06 15:54:00
12:22 PM,73.0,71.1,93,30.08,10.0,SSE,8.1,-,N/A,,Mostly Cloudy,150,2013-08-06 16:22:00
12:29 PM,73.0,70.0,90,30.08,10.0,Variable,5.8,-,N/A,,Overcast,0,2013-08-06 16:29:00
12:54 PM,73.0,70.0,90,30.06,10.0,Variable,4.6,-,N/A,,Overcast,0,2013-08-06 16:54:00
1:54 PM,72.0,70.0,93,30.05,10.0,South,4.6,-,N/A,,Overcast,170,2013-08-06 17:54:00
2:54 PM,73.0,70.0,90,30.04,10.0,SE,9.2,-,N/A,,Overcast,140,2013-08-06 18:54:00
3:54 PM,72.0,69.1,91,30.04,10.0,SE,5.8,-,N/A,,Overcast,140,2013-08-06 19:54:00
4:23 PM,73.0,69.1,87,30.06,10.0,Variable,3.5,-,N/A,,Overcast,0,2013-08-06 20:23:00
4:54 PM,73.9,70.0,87,30.03,10.0,SE,4.6,-,N/A,,Overcast,130,2013-08-06 20:54:00
5:46 PM,75.0,69.1,82,30.06,10.0,Variable,4.6,-,N/A,,Overcast,0,2013-08-06 21:46:00
5:54 PM,75.0,69.1,82,30.03,10.0,South,5.8,-,N/A,,Overcast,170,2013-08-06 21:54:00
6:54 PM,75.0,69.1,82,30.04,10.0,South,4.6,-,N/A,,Overcast,170,2013-08-06 22:54:00
7:54 PM,73.9,70.0,87,30.03,10.0,SE,4.6,-,N/A,,Overcast,130,2013-08-06 23:54:00
8:11 PM,73.0,70.0,90,30.06,10.0,Calm,Calm,-,N/A,,Mostly Cloudy,0,2013-08-07 00:11:00
8:24 PM,73.0,70.0,90,30.06,9.0,Variable,3.5,-,N/A,,Mostly Cloudy,0,2013-08-07 00:24:00
8:54 PM,72.0,70.0,93,30.04,10.0,SE,3.5,-,N/A,,Overcast,140,2013-08-07 00:54:00
9:54 PM,72.0,70.0,93,30.06,8.0,Calm,Calm,-,N/A,,Overcast,0,2013-08-07 01:54:00
10:29 PM,71.1,70.0,96,30.09,7.0,Calm,Calm,-,N/A,,Mostly Cloudy,0,2013-08-07 02:29:00
10:40 PM,71.1,70.0,96,30.10,6.0,Calm,Calm,-,N/A,,Mostly Cloudy,0,2013-08-07 02:40:00
10:54 PM,71.1,70.0,96,30.06,6.0,Calm,Calm,-,N/A,,Mostly Cloudy,0,2013-08-07 02:54:00
11:04 PM,70.0,69.1,97,30.09,5.0,SE,3.5,-,N/A,,Scattered Clouds,140,2013-08-07 03:04:00
11:39 PM,70.0,69.1,97,30.09,7.0,Variable,3.5,-,N/A,,Mostly Cloudy,0,2013-08-07 03:39:00
11:52 PM,69.8,69.8,100,30.09,7.0,Calm,Calm,-,N/A,,Overcast,0,2013-08-07 03:52:00
11:54 PM,70.0,69.1,97,30.06,7.0,Calm,Calm,-,N/A,,Overcast,0,2013-08-07 03:54:00